Back to catalog

CZ-2C R/B

AliveSSO
NORAD 36089·ROCKET BODY·🇨🇳 China

Launched Nov 12, 2009 from Jiuquan Satellite Launch Center

Loading…

Next Passes (next 24 hours)

TLE

FreshSource: Space-Track

Epoch: Sep 14, 2026, 22:33 UTC

1 36089U 09061B   26257.94001181  .00000148  00000-0  46526-4 0  9998
2 36089  98.4679 236.4502 0078786 126.1710 234.6806 14.52452338891113

Track CZ-2C R/B in real time with AllMySat

Download on the App Store